Weather History for KFIT - June, 2013

Change the Weather History Date:

Saturday, June 1, 2013

  Actual Average (KORH) Record (KORH)
Temperature  
Mean Temperature 80 °F 61 °F  
Max Temperature 93 °F 70 °F 92 °F (1937)
Min Temperature 70 °F 52 °F 35 °F (1945)
Degree Days  
Heating Degree Days 0 5  
Month to date heating degree days 5  
Since 1 June heating degree days 5  
Since 1 July heating degree days 6639  
Cooling Degree Days 16 1  
Month to date cooling degree days 1  
Year to date cooling degree days 23  
Since 1 June cooling degree days 1  
Growing Degree Days 30 (Base 50)    
Moisture  
Dew Point 63 °F    
Average Humidity 53    
Maximum Humidity 76    
Minimum Humidity 31    
Precipitation  
Precipitation 0.00 in 0.16 in 3.41 in (1952)
Month to date precipitation 0.16  
Year to date precipitation 19.39  
Snow  
Snow 0.00 in 0.00 in 0.00 in (2002)
Since 1 July snowfall 64.1  
Snow Depth -    
Sea Level Pressure  
Sea Level Pressure 29.92 in    
Wind  
Wind Speed 7 mph (WSW)    
Max Wind Speed 13 mph    
Max Gust Speed 21 mph    
Visibility 10 miles    
Events Thunderstorm    
T = Trace of Precipitation, MM = Missing Value Source: NWS Daily Summary

Daily Weather History Graph

Daily Weather History Graph

Search for Another Location

Airport or City:

Trip Planner

Search our weather history database for the weather conditions in past years. The results will help you decide how hot, cold, wet, or windy it might be!

Date:

Astronomy

Jun. 01, 2013 Rise Set
Actual Time 5:12 AM EDT 8:18 PM EDT
Civil Twilight 4:37 AM EDT 8:52 PM EDT
Nautical Twilight 3:54 AM EDT 9:36 PM EDT
Astronomical Twilight 3:02 AM EDT 10:28 PM EDT
Moon 1:14 AM EDT (6/1) 1:36 PM EDT (6/1)
Length of Visible Light 16h 14m
Length of Day
15h 06m
Last Quarter, 41% of the Moon is Illuminated
Jun 1
Last Quarter
Jun 8
New
Jun 16
First Quarter
Jun 23
Full
Jun 30
Last Quarter

Hourly Weather History & Observations

Time (EDT) Temp. Heat Index Dew Point Humidity Pressure Visibility Wind Dir Wind Speed Gust Speed Precip Events Conditions
12:52 AM 75.9 °F - 64.0 °F 67% 29.98 in 10.0 mi NW 4.6 mph - N/A   Clear
1:52 AM 73.9 °F - 64.0 °F 71% 29.96 in 10.0 mi North 6.9 mph - N/A   Clear
2:52 AM 73.9 °F - 63.0 °F 68% 29.96 in 10.0 mi North 6.9 mph - N/A   Clear
3:52 AM 73.0 °F - 62.1 °F 68% 29.96 in 10.0 mi NNE 4.6 mph - N/A   Clear
4:52 AM 73.0 °F - 62.1 °F 68% 29.96 in 10.0 mi North 4.6 mph - N/A   Clear
5:52 AM 70.0 °F - 62.1 °F 76% 29.97 in 10.0 mi WNW 5.8 mph - N/A   Clear
6:52 AM 75.9 °F - 62.1 °F 62% 29.97 in 10.0 mi NNW 4.6 mph - N/A   Clear
7:52 AM 80.1 °F 81.5 °F 63.0 °F 56% 29.97 in 10.0 mi Calm Calm - N/A   Clear
8:52 AM 82.9 °F 83.7 °F 62.1 °F 49% 29.97 in 10.0 mi West 6.9 mph - N/A   Clear
9:52 AM 86.0 °F 86.8 °F 63.0 °F 46% 29.96 in 10.0 mi West 9.2 mph - N/A   Clear
10:52 AM 89.1 °F 88.0 °F 57.9 °F 35% 29.96 in 10.0 mi WSW 12.7 mph - N/A   Clear
11:52 AM 90.0 °F 88.6 °F 57.0 °F 33% 29.94 in 10.0 mi SW 9.2 mph 19.6 mph N/A   Clear
12:52 PM 91.0 °F 90.5 °F 60.1 °F 35% 29.92 in 10.0 mi SSW 11.5 mph - N/A   Clear
1:52 PM 91.9 °F 90.6 °F 57.0 °F 31% 29.91 in 10.0 mi SW 12.7 mph 18.4 mph N/A   Clear
2:52 PM 91.9 °F 91.5 °F 60.1 °F 34% 29.90 in 10.0 mi WSW 10.4 mph 20.7 mph N/A   Clear
3:52 PM 91.9 °F 92.5 °F 62.1 °F 37% 29.88 in 10.0 mi WSW 10.4 mph 19.6 mph N/A   Clear
4:52 PM 91.9 °F 92.9 °F 63.0 °F 38% 29.87 in 10.0 mi SW 8.1 mph - N/A   Clear
5:52 PM 90.0 °F 91.3 °F 64.0 °F 42% 29.86 in 10.0 mi SW 10.4 mph - N/A   Clear
6:43 PM 87.8 °F 90.4 °F 66.2 °F 49% 29.87 in 10.0 mi SSW 6.9 mph - N/A Thunderstorm Clear
6:52 PM 88.0 °F 90.3 °F 66.0 °F 48% 29.87 in 10.0 mi SSW 6.9 mph - N/A Thunderstorm Clear
7:22 PM 87.8 °F 90.4 °F 66.2 °F 49% 29.88 in 10.0 mi SSW 9.2 mph - N/A   Partly Cloudy
7:52 PM 84.9 °F 87.6 °F 66.9 °F 55% 29.88 in 10.0 mi South 9.2 mph - N/A   Clear
8:52 PM 82.0 °F 84.5 °F 66.9 °F 60% 29.88 in 10.0 mi SSW 5.8 mph - N/A   Clear
9:52 PM 80.1 °F 82.1 °F 66.0 °F 62% 29.89 in 10.0 mi SSW 3.5 mph - N/A   Clear
10:52 PM 79.0 °F - 64.9 °F 62% 29.89 in 10.0 mi Variable 4.6 mph - N/A   Clear
11:52 PM 77.0 °F - 64.9 °F 66% 29.89 in 10.0 mi Calm Calm - N/A   Clear